This demonstration page uses our WeatherBlox Daily Observations layout. Learn more.

Hourly Observations for March 17, 2017

Temp ( °F °C ) Dew Point ( °F °C ) Humidity (%) Winds ( mph kmh ) Pressure ( in mb ) Visibility ( mi km ) Precip ( " mm )
12:15 am 00:15 Clear 57 13.7 30 -0.9 37 37 N 12 19 29.85 1011 10 16.0934 0 0
12:35 am 00:35 Clear 56 13.3 31 -0.5 39 39 N 8 13 29.85 1011 10 16.0934 0 0
12:55 am 00:55 Clear 54 12.2 32 -0.2 43 43 N 9 15 29.88 1012 10 16.0934 0 0
1:15 am 01:15 Clear 54 12.1 32 0 44 44 NNW 12 19 29.88 1012 10 16.0934 0 0
1:35 am 01:35 Clear 53 11.7 32 0 45 45 N 10 17 29.94 1014 10 16.0934 0 0
1:55 am 01:55 Clear 53 11.4 33 0.5 47 47 N 7 11 29.94 1014 10 16.0934 0 0
2:15 am 02:15 Clear 52 10.9 33 0.6 49 49 N 10 17 29.97 1015 10 16.0934 0 0
2:35 am 02:35 Clear 51 10.7 33 0.8 51 51 N 9 15 29.97 1015 10 16.0934 0 0
2:55 am 02:55 Clear 50 9.8 34 0.9 54 54 NNW 9 15 30 1016 10 16.0934 0 0
3:15 am 03:15 Clear 49 9.5 34 1.1 56 56 N 10 17 30 1016 10 16.0934 0 0
3:35 am 03:35 Clear 49 9.2 35 1.5 59 59 N 9 15 30 1016 10 16.0934 0 0
3:55 am 03:55 Clear 47 8.5 35 1.5 62 62 N 8 13 30.03 1017 10 16.0934 0 0
4:15 am 04:15 Clear 46 7.8 35 1.4 64 64 N 8 13 30.03 1017 10 16.0934 0 0
4:35 am 04:35 Clear 44 6.8 34 0.9 66 66 NNW 6 9 30.06 1018 10 16.0934 0 0
4:55 am 04:55 Clear 44 6.5 34 1.1 69 69 NNW 6 9 30.06 1018 10 16.0934 0 0
5:15 am 05:15 Clear 44 6.4 35 1.5 71 71 NNW 7 11 30.06 1018 10 16.0934 0 0
5:35 am 05:35 Clear 42 5.6 34 1.2 74 74 NNW 7 11 30.09 1019 10 16.0934 0 0
5:55 am 05:55 Clear 42 5.5 34 1.1 74 74 NNW 9 15 30.12 1020 10 16.0934 0 0
6:15 am 06:15 Clear 43 6 34 1.3 72 72 N 12 19 30.12 1020 10 16.0934 0 0
6:35 am 06:35 Clear 43 5.9 35 1.4 73 73 NNW 10 17 30.12 1020 10 16.0934 0 0
6:55 am 06:55 Clear 42 5.7 34 1.2 73 73 NNW 10 17 30.15 1021 10 16.0934 0 0
7:15 am 07:15 Clear 42 5.3 34 1 74 74 NNW 8 13 30.15 1021 10 16.0934 0 0
7:35 am 07:35 Clear 41 5 34 1 76 76 NW 5 7 30.15 1021 10 16.0934 0 0
7:55 am 07:55 Sunny 41 4.8 34 1.1 77 77 NW 6 9 30.18 1022 10 16.0934 0 0
8:15 am 08:15 Sunny 41 5.2 35 1.6 78 78 NNW 8 13 30.18 1022 10 16.0934 0 0
8:35 am 08:35 Sunny 42 5.6 35 1.8 77 77 NNW 9 15 30.18 1022 10 16.0934 0 0
8:55 am 08:55 Sunny 45 7 37 2.5 73 73 NW 9 15 30.18 1022 10 16.0934 0 0
9:15 am 09:15 Sunny 47 8.2 37 3 70 70 NNW 6 9 30.15 1021 10 16.0934 0 0
9:35 am 09:35 Sunny 50 10 39 4.1 67 67 N 5 7 30.18 1022 10 16.0934 0 0
9:55 am 09:55 Sunny 53 11.5 40 4.6 63 63 N 8 13 30.15 1021 10 16.0934 0 0
10:15 am 10:15 Sunny 55 12.6 40 4.6 58 58 N 9 15 30.15 1021 10 16.0934 0 0
10:35 am 10:35 Sunny 55 12.8 40 4.5 57 57 N 8 13 30.18 1022 10 16.0934 0 0
10:55 am 10:55 Sunny 56 13.5 40 4.6 55 55 N 6 9 30.18 1022 10 16.0934 0 0
11:15 am 11:15 Sunny 57 14 40 4.3 52 52 NNE 7 11 30.18 1022 10 16.0934 0 0
11:35 am 11:35 Sunny 58 14.5 39 4.1 50 50 N 6 9 30.15 1021 10 16.0934 0 0
11:55 am 11:55 Sunny 59 14.8 39 4.1 49 49 N 8 13 30.15 1021 10 16.0934 0 0
12:15 pm 12:15 Sunny 60 15.5 39 3.9 46 46 N 7 11 30.15 1021 10 16.0934 0 0
12:35 pm 12:35 Sunny 60 15.8 39 4 46 46 N 12 19 30.15 1021 10 16.0934 0 0
12:55 pm 12:55 Sunny 63 17.1 39 4 42 42 NNE 9 15 30.15 1021 10 16.0934 0 0
1:15 pm 13:15 Sunny 64 17.5 39 3.7 40 40 N 9 15 30.15 1021 10 16.0934 0 0
1:35 pm 13:35 Sunny 64 17.6 38 3.3 39 39 N 10 17 30.15 1021 10 16.0934 0 0
1:55 pm 13:55 Sunny 63 17.4 38 3.4 39 39 N 8 13 30.15 1021 10 16.0934 0 0
2:15 pm 14:15 Sunny 64 18 38 3.5 38 38 N 7 11 30.12 1020 10 16.0934 0 0
2:35 pm 14:35 Sunny 64 17.9 38 3.1 37 37 N 8 13 30.12 1020 10 16.0934 0 0
2:55 pm 14:55 Sunny 64 17.5 37 2.6 37 37 N 9 15 30.15 1021 10 16.0934 0 0
3:15 pm 15:15 Sunny 64 18 36 2 34 34 N 6 9 30.12 1020 10 16.0934 0 0
3:35 pm 15:35 Sunny 66 18.9 35 1.8 32 32 NNW 8 13 30.12 1020 10 16.0934 0 0
3:55 pm 15:55 Sunny 66 18.8 35 1.4 31 31 NNW 13 20 30.12 1020 10 16.0934 0 0
4:15 pm 16:15 Sunny 65 18.6 34 1.3 32 32 N 8 13 30.12 1020 10 16.0934 0 0
4:35 pm 16:35 Sunny 65 18.6 35 1.4 32 32 NNW 8 13 30.12 1020 10 16.0934 0 0
4:55 pm 16:55 Sunny 66 18.7 35 1.4 32 32 NNW 10 17 30.12 1020 10 16.0934 0 0
5:15 pm 17:15 Sunny 65 18.2 34 1.1 32 32 NW 12 19 30.12 1020 10 16.0934 0 0
5:35 pm 17:35 Sunny 65 18.5 33 0.8 31 31 N 10 17 30.12 1020 10 16.0934 0 0
5:55 pm 17:55 Sunny 65 18.2 33 0.4 30 30 N 8 13 30.12 1020 10 16.0934 0 0
6:15 pm 18:15 Sunny 64 17.7 32 -0.1 30 30 NNE 9 15 30.15 1021 10 16.0934 0 0
6:35 pm 18:35 Sunny 64 17.6 31 -0.7 29 29 N 10 17 30.18 1022 10 16.0934 0 0
6:55 pm 18:55 Sunny 62 16.6 29 -1.7 29 29 N 9 15 30.18 1022 10 16.0934 0 0
7:15 pm 19:15 Sunny 60 15.8 28 -2.1 29 29 N 8 13 30.18 1022 10 16.0934 0 0
7:35 pm 19:35 Sunny 58 14.2 26 -3.4 30 30 NNE 12 19 30.21 1023 10 16.0934 0 0
7:55 pm 19:55 Clear 54 12.2 23 -4.8 30 30 NNE 12 19 30.21 1023 10 16.0934 0 0
8:15 pm 20:15 Clear 52 10.9 23 -5.1 32 32 NNE 9 15 30.27 1025 10 16.0934 0 0
8:35 pm 20:35 Clear 50 9.8 22 -5.4 34 34 NNE 9 15 30.27 1025 10 16.0934 0 0
8:55 pm 20:55 Clear 46 7.8 21 -6 37 37 NNE 9 15 30.3 1026 10 16.0934 0 0
9:15 pm 21:15 Clear 44 6.8 21 -6.1 40 40 NNE 8 13 30.3 1026 10 16.0934 0 0
9:35 pm 21:35 Clear 43 5.9 21 -6.1 42 42 NE 9 15 30.3 1026 10 16.0934 0 0
9:55 pm 21:55 Clear 43 6.1 21 -6.1 42 42 NE 5 7 30.33 1027 10 16.0934 0 0
10:15 pm 22:15 Clear 41 5.2 21 -6 45 45 NE 8 13 30.36 1028 10 16.0934 0 0
10:35 pm 22:35 Clear 40 4.4 21 -6.3 46 46 NE 6 9 30.36 1028 10 16.0934 0 0
10:55 pm 22:55 Clear 40 4.5 21 -6.1 46 46 NE 12 19 30.36 1028 10 16.0934 0 0
11:15 pm 23:15 Clear 42 5.6 22 -5.8 44 44 NE 9 15 30.33 1027 10 16.0934 0 0
11:35 pm 23:35 Clear 41 5.2 21 -6.3 44 44 NE 8 13 30.39 1029 10 16.0934 0 0
11:55 pm 23:55 Clear 39 3.8 20 -6.5 47 47 ENE 9 15 30.36 1028 10 16.0934 0 0

Powered by AerisWeather